288  
ASUS41 KOKX 271809  
RWROKX  
 
REGIONAL WEATHER ROUNDUP  
NATIONAL WEATHER SERVICE NEW YORK NY  
200 PM EDT TUE JUN 27 2017  
 
NOTE: "FAIR" INDICATES FEW OR NO CLOUDS BELOW 12,000 FEET WITH NO  
SIGNIFICANT WEATHER AND/OR S TO VISIBILITY
.  
 
NYZ071-072-176-178-NJZ106-104-271900-  
NEW YORK CITY METRO AREA  
 
CITY SKY/WX TMP DP RH WIND PRES REMARKS
 
CENTRAL PARK SUNNY 76 58 53 MISG 29.97F  
BRONX BOT GARD N/A 75 52 43 W3 29.96F  
LAGUARDIA APRT MOSUNNY 77 56 48 W9G16 29.94F  
KENNEDY INTL MOSUNNY 75 59 57 S9 29.97F  
BREEZY POINT N/A 70 N/A N/A S6 N/A  
NEWARK/LIBERTY MOSUNNY 77 54 44 SW8 29.95F  
TETERBORO MOSUNNY 76 55 48 SW12G20 29.93F  

 
 
NYZ177-179-078>081-271900-  
LONG ISLAND NEW YORK  
 
CITY SKY/WX TMP DP RH WIND PRES REMARKS
 
JONES BEACH N/A 70 N/A N/A S7 N/A  
MATINECOCK PT N/A N/A N/A N/A E2 N/A  
FARMINGDALE NOT AVBL  
MACARTHUR/ISP PTSUNNY 74 61 63 VRB3 29.95F  
SHIRLEY PTSUNNY 73 64 73 SW8 29.96F  
MT SINAI HARB N/A N/A N/A N/A NE7 N/A  
WESTHAMPTON CLOUDY 74 63 68 S9 29.98F  
EAST HAMPTON FAIR 72 61 69 S8 29.97F  
MONTAUK N/A 68 61 78 VRB6 30.00F  

 
 
NYZ052-065-067-271900-  
HUDSON VALLEY  
 
CITY SKY/WX TMP DP RH WIND PRES REMARKS
 
WHITE PLAINS MOSUNNY 73 57 57 S9 29.94F  
LARCHMONT HARB N/A 68 N/A N/A E6 N/A  
CROTON O-T HUD N/A 73 N/A N/A SE8G15 N/A  
NEWBURGH MOSUNNY 73 54 49 W12G17 29.96S  
MONTGOMERY CLOUDY 73 55 53 NW6 29.94F  
POUGHKEEPSIE MOSUNNY 76 51 41 SW13G22 29.92F  
ALBANY MOSUNNY 68 58 70 SE6 29.92F  

 
 
NJZ001-105-106-008-010-013-015-019>022-104-271900-  
NEW JERSEY  
 
CITY SKY/WX TMP DP RH WIND PRES REMARKS
 
NEWARK/LIBERTY MOSUNNY 77 54 44 SW8 29.95F  
TETERBORO MOSUNNY 76 55 48 SW12G20 29.93F  
CALDWELL MOSUNNY 77 55 46 SW8 29.95F  
SOMERVILLE PTSUNNY 77 56 48 NW7 29.94F  
LINDEN FAIR 77 53 42 NW9 29.95F  
PERTH AMBOY N/A 72 N/A N/A W8 N/A  
SUSSEX SUNNY 73 52 47 SW7G16 29.96F  
ANDOVER N/A 74 50 42 SW12 29.96F  
TRENTON LGT RAIN 73 55 53 W12G20 29.97F  
MILLVILLE SUNNY 79 54 41 W13G18 29.98F  
ATLANTIC CITY MOSUNNY 81 53 37 W9 29.97F  
WRIGHTSTOWN SUNNY 77 55 46 SW8 29.94F  
TOMS RIVER SUNNY 81 50 33 W9G16 29.97F  
BELMAR MOSUNNY 78 54 43 NW8 29.97F  

 
 
PAZ047>061-062-071-271900-  
EASTERN PENNSYLVANIA  
 
CITY SKY/WX TMP DP RH WIND PRES REMARKS
 
PHILADELPHIA MOSUNNY 77 50 38 W12 29.97F  
ALLENTOWN PTSUNNY 76 52 43 W13G21 29.96F  
SCRANTON PTSUNNY 64 49 57 SW8 29.97S  

 
 
CTZ002-004>006-009-010-012-RIZ004-006-007-MAZ004-011-015-271900-  
SOUTHERN NEW ENGLAND  
IN CT  
 
CITY SKY/WX TMP DP RH WIND PRES REMARKS
 
BRADLEY INTL CLOUDY 75 60 59 S16 29.93F THUNDER  
HARTFORD CLOUDY 76 57 51 S12G20 29.93F THUNDER  
DANBURY PTSUNNY 72 56 57 SW9G18 29.95F  
WTRBURY/OXFORD PTSUNNY 72 54 53 S9G17 29.96F  
BRIDGEPORT SUNNY 73 58 59 SE6 29.96F  
MERIDEN MOSUNNY 74 55 51 S12G21 29.95F  
NEW HAVEN MOSUNNY 72 59 63 SE8 29.97F  
CHESTER MOCLDY 70 61 73 SE12 29.98F  
GROTON CLOUDY 69 63 81 SE12 29.97F  
WILIMANTIC CLOUDY 74 58 57 S17G25 29.95F  
 
IN RI  
 
CITY SKY/WX TMP DP RH WIND PRES REMARKS
 
PROVIDENCE PTSUNNY 70 61 73 S14 29.99S  
BLOCK ISLAND CLOUDY 68 61 78 S10 30.01S  
WESTERLY CLOUDY 68 63 84 SE8 30.00F  
IN MA  
 
CITY SKY/WX TMP DP RH WIND PRES REMARKS
 
BOSTON LGT RAIN 67 59 75 S7G18 29.96F  
WORCESTER CLOUDY 69 53 56 SW12 29.95F  
WESTFIELD CLOUDY 69 60 73 S9G18 29.93F  
PROVINCETOWN CLOUDY 70 62 76 S10G21 29.99F  
NANTUCKET CLOUDY 67 63 87 S13 30.01F  

 
 
ANZ330-335-338-340-345-350-353-355-271900-  
COASTAL MARINE OBSERVATIONS  
 
 
STATION/POSITION TIME SKY/WX TEMP WIND PRES VSBY WAVE
 
AIR SEA DIR/SP/G HT/PER  
(UTC) (F) (DEG/KT/KT) (MB) (MI) (FT/S)  
NY HARB ENTRANCE 1750 66 70 70/ 4/ 4 1014.8 1/ 8  
20 S FIRE ISLAND 1750 69 70 250/ 8/ 10 1014.5 2/ 8  
GREAT SOUTH BAY 1715 69 76 CALM / 4 N/A  
23 SSW MONTAUK P 1650 68 66 1016.3 2/ 7  
15 E BARNEGAT LI 1730 68 N/A 2/ 6  
HUDSON CANYON 1750 70 68 180/ 10/ 12 1014.9 2/ 7  
KINGS POINT 1730 72 65 260/ 7/ 10 1014.4  
EXECUTION ROCKS 1745 73 180/ 6/ 8 N/A  
CENTRAL LI SOUND NOT AVBL  
EASTERN LI SOUND NOT AVBL  
ROBBINS REEF 1724 160/ 7/ 10 1015.3  

 
 
>>>>>>>>>>>>>>>>>>>>>>>>>>>> KEY <<<<<<<<<<<<<<<<<<<<<<<<<<<  
> <  
> SKY/WX - SKY CONDITION/PRESENT WEATHER <  
> TMP - TEMPERATURE IN FAHRENHEIT <  
> DP - DEW POINT IN FAHRENHEIT <  
> RH - RELATIVE HUMIDITY IN PERCENT <  
> WIND - DIRECTION (FROM) AND SPEED IN MPH <  
> PRES - MEAN SEA LEVEL PRESSURE (INCHES OF HG) <  
> WCI - WIND CHILL INDEX <  
> VSB - VISIBILITY IN MILES <  
> HX - HEAT INDEX <  
> TC - TEMPERATURE IN CELSIUS <  
> VRB - VARIABLE WIND DIRECTION <  
> <  
>>>>>>>>>>>>>>>>>>>>>>>>>>>> KEY <<<<<<<<<<<<<<<<<<<<<<<<<<<  
 
 
CLICK HERE TO GO TO PREVIOUS BULLETINS.

The Nexlab NY Page
The Nexlab NJ Page
The Nexlab CT Page Main Text Page